Regional Weather Roundup
Issued by NWS

Home | Current Version | Previous Version | Text Only | Print | Product List | Glossary Off
Versions: 1 2 3 4 5 6 7 8 9 10 11 12 13 14 15 16 17 18 19 20 21 22 23 24 25 26 27 28 29 30 31 32 33 34 35 36 37 38 39 40 41 42 43 44 45 46 47 48 49 50

000
ASUS43 KMKX 201321
RWRWI

WISCONSIN REGIONAL WEATHER ROUNDUP
NATIONAL WEATHER SERVICE MILWAUKEE/SULLIVAN WI
800 AM CDT MON OCT 20 2014

NOTE: "FAIR" INDICATES FEW OR NO CLOUDS BELOW 12,000 FEET WITH NO
SIGNIFICANT WEATHER AND/OR OBSTRUCTIONS TO VISIBILITY.

WIZ001-002-006>008-014>016-023>028-201400-
NORTHWEST WISCONSIN

CITY           SKY/WX    TMP DP  RH WIND       PRES   REMARKS
SUPERIOR ARPT  PTCLDY    41  40  95 NW6       29.94R
ASHLAND        CLOUDY    48  42  80 NW7       29.91R
HAYWARD        CLOUDY    36  35  96 CALM      29.92R
SIREN          CLEAR     36  36  98 CALM      29.94R FOG
CUMBERLAND     CLEAR     43  39  87 NW7       29.93R
RICE LAKE      CLEAR     42  39  91 W5        29.94R
CHETEK         CLEAR     40  40  97 NW3       29.93R
LADYSMITH      CLEAR     41  39  93 NW6       29.92R
EAU CLAIRE     CLEAR     43  39  86 W6        29.92R
MENOMONIE      CLEAR     45  41  87 W5        29.93R
NEW RICHMOND   CLEAR     39  39 100 CALM      29.96R
OSCEOLA        CLEAR     36  36 100 CALM      29.99R
$$

WIZ003>005-009-010-017-018-201400-
NORTH CENTRAL WISCONSIN

CITY           SKY/WX    TMP DP  RH WIND       PRES   REMARKS
MANITOWISH WTR CLOUDY    44  43  98 N3        29.86R
ARBOR VITAE    CLOUDY    46  43  91 N6        29.86R
WOODRUFF       CLOUDY    46  43  91 N6        29.86R
RHINELANDER    LGT RAIN  44  43  96 N3        29.86R FOG
EAGLE RIVER    MIX PCPN  43  43 100 N6        29.85R
LAND O LAKES   CLOUDY    44  42  95 N5        29.86R FOG
PHILLIPS       CLOUDY    42  40  93 W3        29.87S
TOMAHAWK       CLOUDY    42  41  94 CALM      29.87R
MEDFORD        CLOUDY    41  40  95 NW3       29.87S
MERRILL        CLOUDY    44  42  92 NW5       29.86R
$$

WIZ029-030-035-036-043>047-201400-
CENTRAL WISCONSIN

CITY           SKY/WX    TMP DP  RH WIND       PRES   REMARKS
WAUSAU         MOCLDY    43  41  93 NW6       29.86R
MOSINEE        CLOUDY    45  45 100 NW13      29.88R
MARSHFIELD     PTCLDY    44  40  85 NW8       29.88R
STEVENS POINT  CLEAR     42  40  91 NW3       29.88R
WAUPACA        MOCLDY    48  45  87 NW8       29.85R
WAUTOMA        MOCLDY    46  42  86 NW8       29.86R
WISC RAPIDS    CLEAR     44  41  89 NW7       29.89R
CAMP DOUGLAS   CLEAR     41  41 100 W5        29.90R
$$

WIZ011>013-019>022-031-037>040-048>050-201400-
NORTHEAST WISCONSIN

CITY           SKY/WX    TMP DP  RH WIND       PRES   REMARKS
ANTIGO         CLOUDY    43  42  97 NW8       29.85R
SHAWANO        CLOUDY    45  43  93 CALM      29.84R
OCONTO         CLOUDY    46  44  95 NW5       29.81R
STURGEON BAY   CLOUDY    48  45  87 N7        29.82R
GREEN BAY      CLOUDY    48  44  86 NW8       29.82R
MANITOWOC      CLOUDY    49  45  86 NW8       29.80R
APPLETON       MOCLDY    45  43  93 NW12      29.82R
CLINTONVILLE   CLOUDY    45  43  93 W6        29.84R
OSHKOSH        MOCLDY    48  44  86 NW9       29.82R
$$

WIZ032>034-041-042-053>061-201400-
SOUTHWEST WISCONSIN

CITY           SKY/WX    TMP DP  RH WIND       PRES   REMARKS
LA CROSSE      CLEAR     45  42  89 CALM      29.92R
SPARTA         CLEAR     45  40  83 W3        29.91S
VIROQUA        CLEAR     45  41  86 NW5       29.92R
BOSCOBEL       CLEAR     45  42  89 CALM      29.92R FOG
PRAIRIE DU CHI CLEAR     45  41  85 CALM      29.92R
PLATTEVILLE    CLEAR     47  43  85 CALM      29.90R
$$

WIZ056-057-062-063-064-067-068-201400-
SOUTH CENTRAL WISCONSIN

CITY           SKY/WX    TMP DP  RH WIND       PRES   REMARKS
REEDSBURG      FAIR      48  42  80 NW9G16    29.89R
BARABOO/DELLS  FAIR      47  41  78 NW5       29.88R
LONE ROCK      CLEAR     53  42  66 NW8       29.90R
MINERAL POINT  CLEAR     50  43  76 NW9       29.89R
MADISON        PTCLDY    50  43  77 NW8       29.85R
MIDDLETON      PTCLDY    50  43  77 NW5       29.87R
WATERTOWN      PTCLDY    45  45  98 NW6       29.83R
MONROE         CLEAR     46  43  87 NW10G17   29.85R
JANESVILLE     PTCLDY    41  39  93 CALM      29.83R
$$

WIZ051-052-058>065-066-070>072-201400-
SOUTHEAST WISCONSIN

CITY           SKY/WX    TMP DP  RH WIND       PRES   REMARKS
MILWAUKEE      PTCLDY    49  43  80 NW7       29.79R
WAUKESHA       CLEAR     45  43  93 W12       29.81R
MILWAUKEE/TIMM NOT AVBL
RACINE         MOCLDY    48  42  80 W8        29.81R
BURLINGTON     CLEAR     45  42  90 W6        29.81R
KENOSHA        MOCLDY    47  44  90 W7        29.80R
FOND DU LAC    MOCLDY    46  42  86 N7        29.83R
SHEBOYGAN      PTCLDY    48  43  82 NW13      29.80R
WEST BEND      CLEAR     46  41  81 W7        29.81R
JUNEAU         CLOUDY    46  44  91 NW7       29.84R
$$

LSZ147-162-201400-
LAKE SUPERIOR

STATION/POSITION TIME  TEMP    WIND        PRES    WAVE
                       AIR SEA DIR/SP/G            HT/PER
                 (UTC) (F)     (DEG/KT/KT) (MB)    (FT/S)
W MID LAKE BUOY  1250   48 46  340/ 10/ 12 1011.7R   1
DEVILS ISLAND    1300   50     320/ 13/ 15 1012.9R
PORT WING        1200   49     280/  8/ 11 1012.5
SAXON HARBOR     1200   48        CALM     1011.5R
$$

LMZ867-665-643>646-201400-
LAKE MICHIGAN

STATION/POSITION TIME  TEMP    WIND        PRES    WAVE
                       AIR SEA DIR/SP/G            HT/PER
                 (UTC) (F)     (DEG/KT/KT) (MB)    (FT/S)
CHAMBERS ISLAND  1200   50     340/ 10/ 12 1008.8R
N MID LAKE BUOY  1250   49 52  320/ 14/ 17 1008.6R   3/ 7
NORTHPORT PIER   1200   51     350/ 13/ 15 1008.5R
KEWAUNEE LAKESHO 1300   47     300/  6/  7 1008.3R
SHEBOYGAN LAKESH 1300   49 50  300/ 14/ 17 1009.4R
PORT WASHINGTON  1240   49     300/ 10/ 15 1009.5R
ATWATER BUOY     1300   50     280/ 14/ 16 1010.0R
MILWAUKEE LAKESH 1300   50     310/ 12/ 16   N/A
S MID LAKE BUOY  1250   53 55  260/ 12/ 14 1009.2R   4/ 6
KENOSHA   LAKESH 1300   49     270/ 11/ 15 1008.8R
$$

TC  - TEMPERATURE IN CELSIUS
VSB - VISIBILITY IN STATUTE MILES
WCI - WIND CHILL INDEX
HX  - HEAT INDEX




USA.gov is the U.S. government's official web portal to all federal, state and local government web resources and services.